Dewpoint
42 37 34 31 30 26 27 29 32 38 42 41 40 39 38 37 40 39 37 37 37 40 42 40 34 34 37 57 61 62 63 64 64 64 63 63 63 63 63 63 63 63 63 62
35 32 33 32 33 31 31 29 29 34 40 41 39 37 37 36 36 38 37 36 39 40 42 41 34 34 36 43 57 60 61 62 63 63 63 63 64 64 64 65 65 65 65 65
33 35 35 34 33 30 29 27 29 29 36 38 36 34 35 36 36 37 37 36 38 40 40 40 36 34 39 41 46 50 54 58 60 63 61 59 59 58 60 62 63 58 51 55
35 38 34 31 30 28 27 30 31 31 29 23 33 17 27 32 34 35 36 37 36 39 41 40 36 34 39 43 43 43 43 44 43 44 51 55 57 55 45 43 44 45 46 47
33 37 33 31 31 30 29 32 30 28 25 28 29 25 18 29 30 31 34 36 37 39 41 39 36 35 40 43 44 44 43 43 43 43 42 41 41 42 43 43 44 45 45 47
37 40 36 34 34 33 31 31 31 31 28 24 24 25 19 23 25 27 30 34 36 37 37 37 36 37 41 44 45 44 42 42 43 43 43 43 43 42 43 43 43 44 45 46
36 37 37 37 31 31 29 26 25 23 24 19 25 25 20 26 26 25 25 26 31 35 36 36 35 38 41 43 44 43 41 41 41 42 43 43 44 44 44 45 44 45 45 46
30 27 35 36 32 30 29 22 20 16 17 18 23 22 20 25 25 25 25 25 26 27 29 35 35 38 41 43 43 41 41 40 41 42 42 42 43 44 44 45 45 46 47 48
29 29 37 37 35 31 31 28 24 23 21 21 19 21 21 20 21 20 21 23 25 26 27 29 33 39 42 42 42 41 40 40 41 41 41 41 41 42 42 43 45 47 47 47
32 29 35 35 35 32 30 28 24 27 19 13 15 16 10 18 20 20 20 21 23 28 30 32 37 40 42 42 42 41 40 39 40 40 40 40 40 41 41 41 42 43 43 44
32 29 33 34 32 31 29 28 28 25 24 16 10 9 18 20 20 21 22 25 27 29 33 37 39 41 41 41 41 39 39 39 39 39 39 39 39 40 40 40 40 41 41 41
31 31 29 32 37 34 31 27 27 23 23 23 20 14 19 21 21 22 25 28 30 33 36 38 40 40 40 39 39 38 38 38 39 38 38 38 38 39 39 39 39 39 39 39
31 30 26 29 32 34 32 31 28 28 27 25 20 18 21 22 22 23 27 28 30 34 37 39 40 40 39 39 38 38 38 38 38 37 37 37 38 38 39 39 38 38 39 39
33 29 27 22 26 30 30 31 31 29 26 23 23 22 22 24 25 26 28 30 29 33 36 38 40 39 39 39 39 38 38 37 37 37 37 37 37 38 39 39 38 38 38 37
32 29 28 25 28 31 30 30 32 31 29 26 25 23 24 26 28 29 31 30 29 29 34 37 39 39 39 39 39 38 38 37 37 37 37 37 38 39 39 38 38 37 37 37
32 29 27 25 26 29 28 29 30 31 30 30 30 29 31 31 31 31 30 30 31 29 30 34 38 39 39 39 39 38 37 37 36 36 36 37 38 38 38 37 37 37 36 36
34 29 26 23 24 24 21 22 24 27 30 30 28 27 28 29 30 31 31 31 31 31 30 31 35 37 39 39 39 38 37 37 36 36 36 37 37 37 37 36 36 36 36 37
29 27 26 23 22 13 18 21 24 24 25 25 26 28 30 32 33 33 32 32 32 32 30 30 33 36 38 39 38 38 37 37 36 36 36 36 37 37 36 36 36 36 36 36
28 26 25 22 19 19 24 26 25 24 26 28 29 30 32 34 34 33 31 31 31 32 33 34 33 35 38 38 38 37 37 36 36 36 36 36 37 36 36 35 35 35 35 34
28 27 24 23 21 16 19 24 28 27 23 30 31 32 32 34 31 32 34 33 32 34 33 34 36 36 36 37 37 36 36 36 36 36 36 36 36 36 35 35 34 34 33 32
27 28 26 24 22 20 26 28 29 23 26 30 29 29 33 33 34 36 35 33 35 37 36 36 36 36 36 36 36 36 36 36 36 36 36 36 36 36 35 34 34 33 33 31
25 24 23 25 21 18 24 30 27 28 24 22 22 25 30 31 35 37 35 36 37 37 36 36 36 36 36 36 36 36 35 36 36 36 36 36 36 35 34 33 32 32 31 29
26 26 25 25 24 27 23 29 26 26 26 25 25 28 30 30 30 36 36 36 36 36 35 35 36 36 36 36 35 35 36 36 35 35 35 35 35 34 33 32 31 29 29 26
28 27 26 23 28 25 25 30 26 26 28 28 30 33 32 31 31 35 37 37 36 36 35 35 35 35 35 35 35 35 35 35 35 34 34 34 33 33 32 31 30 28 23 21
25 21 20 19 21 25 26 27 28 30 30 29 33 34 34 35 34 34 37 37 37 36 35 35 35 34 34 35 35 35 35 35 34 34 34 33 33 33 31 31 30 24 21 17
21 25 25 23 25 27 27 30 32 31 30 31 32 33 35 35 35 36 37 38 37 36 36 35 35 36 37 36 36 36 35 35 34 33 33 33 32 33 31 31 31 29 23 23
Wind_Speed
2 10 27 27 23 7 16 15 16 5 10 11 17 16 16 12 9 11 15 20 24 18 8 6 6 5 7 10 12 14 14 14 12 12 12 11 11 10 10 10 11 11 11 11
4 12 20 18 15 14 17 18 14 8 14 18 13 22 19 18 16 15 17 18 24 18 14 7 5 5 7 7 10 10 11 12 13 11 10 8 7 8 8 6 8 9 10 11
6 5 18 20 18 12 14 19 16 10 11 10 5 13 20 21 21 19 19 19 19 23 20 13 7 7 5 6 6 8 8 8 8 9 7 5 3 2 4 4 4 2 2 3
3 10 24 23 18 15 12 12 13 9 11 8 10 6 10 22 25 25 22 19 17 18 16 15 9 9 8 7 6 6 7 8 6 7 8 9 8 8 2 1 1 3 2 3
1 14 23 22 20 11 5 11 14 12 13 5 9 8 14 5 22 22 22 22 21 17 18 18 13 11 9 10 10 8 8 7 6 5 6 6 5 3 1 1 2 2 2 2
2 2 6 9 9 6 16 13 11 6 8 9 14 13 6 7 10 14 15 22 24 22 15 15 13 11 11 10 10 9 9 8 6 6 6 6 5 3 2 2 3 3 3 3
6 4 4 6 10 9 15 20 7 7 8 8 2 11 14 7 9 6 7 9 15 18 20 15 16 15 15 13 12 11 10 9 6 6 6 5 3 2 1 2 3 5 5 4
6 9 10 8 6 11 19 17 5 7 7 7 3 8 4 1 2 5 8 11 10 8 12 15 15 16 17 17 15 13 11 9 7 5 5 4 3 1 1 1 3 4 5 4
6 4 3 4 3 5 9 7 2 5 1 3 5 4 14 4 3 3 4 5 9 7 11 11 12 15 16 16 15 13 12 9 7 6 4 3 2 1 1 1 2 3 3 4
4 9 3 3 3 5 3 12 4 1 5 5 3 5 4 9 6 6 8 8 7 5 5 7 10 14 15 15 13 11 10 9 7 5 3 2 1 1 2 2 3 3 3 3
5 4 5 8 7 12 5 6 2 1 2 2 1 2 2 10 3 5 7 7 7 2 3 6 10 14 14 12 11 10 9 9 7 5 3 3 2 3 4 4 4 3 3 2
1 6 7 3 3 2 2 10 15 11 6 3 3 5 4 4 3 3 6 8 3 2 5 9 12 14 13 12 11 9 8 6 5 4 3 3 3 4 5 4 3 2 2 1
4 5 9 5 1 2 7 8 8 7 2 9 10 3 1 5 6 5 7 13 8 5 9 12 13 14 14 14 13 12 11 9 6 4 3 4 5 5 5 4 3 2 1 0
1 3 3 8 3 7 10 16 12 12 12 21 22 20 11 11 18 19 20 11 8 7 11 14 16 16 14 14 13 12 10 8 7 5 5 5 5 5 4 3 2 1 1 2
2 3 2 3 4 3 4 11 18 17 23 21 21 24 22 19 20 17 18 19 13 11 14 17 17 17 16 16 14 13 10 9 8 7 7 6 5 5 4 3 3 3 3 4
1 3 2 2 1 2 6 10 10 16 22 22 23 28 21 18 17 18 19 20 17 19 17 19 18 18 19 19 17 14 12 10 9 8 7 6 6 5 5 5 5 5 4 5
3 5 3 3 2 3 8 7 12 8 9 10 18 20 18 20 20 20 20 20 20 18 18 16 20 21 20 19 17 16 13 10 10 9 8 8 8 7 7 7 7 7 6 6
7 5 1 2 1 4 2 2 3 6 7 9 14 14 15 16 18 21 20 21 21 20 17 16 17 19 20 17 17 14 13 13 12 11 10 9 9 8 8 8 8 7 7 7
2 4 3 3 5 4 2 2 0 1 6 5 9 14 16 17 17 15 12 12 17 21 20 16 14 16 17 18 17 16 15 14 13 13 12 11 11 10 10 9 9 8 8 7
4 5 2 3 2 1 3 4 1 2 8 16 15 19 21 20 17 21 25 27 22 17 13 10 9 14 17 17 17 16 15 14 14 13 12 12 12 12 12 11 10 8 8 7
3 2 6 5 4 3 9 7 1 4 4 16 16 18 21 15 17 28 27 20 14 11 8 4 10 13 15 17 17 16 15 16 14 13 13 13 12 12 12 11 8 8 8 7
4 3 2 3 5 5 15 2 5 6 11 15 18 18 22 24 25 24 22 17 13 8 1 5 10 11 12 15 16 15 16 14 14 14 13 13 12 10 11 12 11 10 8 8
2 2 2 3 2 4 9 2 5 11 15 17 20 21 21 25 26 25 21 16 9 3 2 4 8 11 11 13 14 14 13 15 14 13 13 12 12 11 12 13 12 11 10 11
2 7 1 6 3 7 16 7 10 15 15 17 16 21 22 23 25 25 21 14 8 5 6 7 9 10 11 12 13 12 14 15 14 14 14 13 13 12 12 10 12 12 13 12
3 4 6 6 7 18 5 15 21 25 18 16 19 20 22 21 25 22 20 16 9 8 7 9 10 11 12 13 13 12 14 17 16 15 14 14 13 15 13 12 13 13 12 13
2 2 2 5 13 12 21 23 27 23 19 21 22 25 22 22 24 23 18 13 9 9 9 11 12 11 11 12 13 13 14 16 17 17 15 15 14 13 13 12 11 15 13 14
Wind_Direction
92 169 184 180 188 222 173 183 174 146 177 169 211 234 243 247 229 235 247 249 240 227 241 273 292 253 223 208 208 210 209 210 201 201 207 221 222 224 235 236 239 242 245 245
75 174 181 160 140 167 176 178 176 163 167 201 205 233 243 240 236 226 238 258 223 215 226 244 266 248 212 213 205 205 206 207 208 215 212 223 222 234 244 246 246 247 255 257
190 188 176 167 173 152 174 189 175 186 164 194 218 245 241 244 242 234 239 249 235 215 221 228 236 222 205 186 203 200 199 197 200 207 193 183 188 206 213 214 220 198 282 270
187 180 165 167 172 177 165 206 177 168 173 218 201 260 227 229 233 231 235 242 247 240 226 225 224 210 192 165 151 157 158 160 167 186 203 211 226 232 197 213 295 302 322 302
164 175 165 169 167 168 131 162 187 196 210 218 202 245 255 250 240 240 237 239 245 241 228 224 213 202 184 159 152 147 144 136 131 143 161 163 162 146 149 233 292 292 294 310
40 192 139 145 135 199 137 129 127 149 208 240 226 226 260 252 278 267 256 243 242 239 228 225 215 187 176 170 146 154 152 140 140 131 121 127 138 145 195 236 271 277 288 298
120 103 156 144 117 140 176 163 134 179 202 235 124 224 254 260 261 282 300 279 260 247 237 220 203 190 179 176 167 165 164 149 142 127 113 108 112 131 214 279 290 294 287 280
150 149 156 154 171 166 185 180 184 193 203 203 164 218 234 324 312 259 257 265 256 250 244 238 226 195 185 178 174 168 163 153 146 130 118 113 109 126 191 292 291 284 289 300
128 106 103 125 195 170 176 203 52 94 70 208 184 237 279 279 228 353 346 297 267 245 235 228 221 196 181 174 176 168 163 157 149 145 143 136 126 122 245 282 291 288 297 314
123 117 117 109 159 56 192 148 171 161 181 221 177 250 217 128 72 26 9 344 328 294 263 228 202 191 173 170 166 161 166 161 154 148 155 166 183 240 269 270 266 281 290 305
145 120 136 168 208 184 165 192 157 143 329 266 258 175 159 148 51 32 21 4 341 304 229 203 184 174 163 157 161 165 167 165 162 167 176 202 235 253 253 254 259 270 277 307
94 123 141 123 27 44 224 225 217 225 205 222 290 258 148 204 296 305 21 30 352 253 174 166 171 163 161 162 165 173 174 187 183 177 201 242 256 254 245 235 232 251 260 294
170 129 126 132 30 261 222 205 216 227 337 220 252 230 139 197 224 243 312 325 306 197 171 167 173 181 179 182 183 184 183 184 188 195 219 238 249 251 243 227 210 199 237 299
151 139 226 189 124 146 201 214 208 211 241 248 237 254 239 257 278 278 299 321 322 241 198 192 187 193 194 192 192 195 193 190 186 195 217 227 232 226 221 199 185 171 129 115
27 129 80 78 97 150 201 212 208 210 232 246 259 264 269 274 284 292 295 293 282 242 218 212 205 199 199 200 199 195 196 195 190 198 209 211 200 194 182 162 133 132 125 113
36 141 155 149 69 220 248 236 232 237 247 258 266 279 283 291 293 291 296 292 281 264 238 224 217 211 207 205 203 200 198 195 193 201 204 189 196 180 172 154 145 141 133 132
180 149 158 183 334 261 253 250 228 234 247 255 268 283 313 307 307 301 293 283 277 265 254 232 223 218 214 206 197 201 196 185 195 200 192 189 185 179 171 155 155 149 142 138
150 131 91 164 273 231 82 282 270 254 274 264 273 298 312 317 308 294 288 280 273 260 249 240 232 221 209 198 191 185 182 187 191 194 189 186 181 183 167 165 159 151 151 144
199 147 116 211 221 298 127 118 216 204 96 40 344 332 324 327 311 310 352 339 306 276 259 261 250 219 191 182 179 176 180 186 188 191 189 186 184 178 174 173 167 161 154 146
114 116 194 167 282 297 82 14 351 226 198 9 352 339 333 334 328 320 334 319 308 309 272 253 211 183 174 172 169 172 182 184 194 193 189 185 184 183 179 178 168 165 156 145
173 180 219 217 239 266 7 335 148 242 9 345 346 339 337 322 305 305 314 310 314 308 288 208 179 182 168 161 165 175 180 194 193 188 181 181 185 184 178 159 158 150 148 154
201 204 200 197 223 240 2 86 341 353 331 334 329 326 324 321 317 315 316 315 316 317 296 185 164 159 157 161 168 178 189 187 182 180 179 180 179 174 167 163 154 157 163 180
175 356 327 271 9 97 0 317 77 354 327 327 321 321 322 314 320 316 314 314 308 287 195 169 170 156 163 171 180 185 188 177 178 181 183 181 177 174 173 170 171 172 187 198
110 16 302 325 146 327 320 167 332 339 326 318 315 313 312 308 311 314 313 305 287 250 196 173 168 175 179 184 190 193 176 173 178 187 188 182 180 178 177 178 182 194 195 197
2 6 334 274 298 335 137 330 326 321 314 313 317 315 307 310 305 309 308 302 273 245 210 191 190 192 192 190 198 190 183 173 181 188 190 187 186 185 186 193 195 205 210 205
126 100 291 269 315 294 290 307 313 312 312 315 312 312 305 306 301 303 298 299 270 236 215 205 206 201 195 193 199 198 186 186 188 187 191 191 189 189 192 197 212 224 226 219